EW9434 Weather Reports


time (UTC)temp
C
wind
direction
speed
KPH
gust
KPH
rain 1hr
cm
rain 24hr
cm
rain mn
cm
humidity
%
barometer
mb
20260510142227 17 303 4.8 11.3 0.00 0.00 0.00 52 1015.0
20260510141920 17 335 4.8 11.3 0.00 0.00 0.00 54 1015.0
20260510141534 17 335 4.8 11.3 0.00 0.00 0.00 52 1014.6
20260510141133 17 341 3.2 9.7 0.00 0.00 0.00 53 1015.0
20260510140607 17 2 3.2 9.7 0.00 0.00 0.00 55 1015.0
20260510140304 17 331 3.2 6.4 0.00 0.00 0.00 55 1014.8
20260510140011 17 331 3.2 6.4 0.00 0.00 0.00 55 1014.4
20260510135514 17 338 3.2 8.0 0.00 0.00 0.00 57 1014.6
20260510135012 17 336 4.8 11.3 0.00 0.00 0.00 54 1014.5
20260510134507 17 10 3.2 11.3 0.00 0.00 0.00 55 1014.2
20260510134442 17 10 4.8 11.3 0.00 0.00 0.00 55 1014.5
20260510133943 17 324 3.2 9.7 0.00 0.00 0.00 57 1014.4
20260510133439 17 334 4.8 17.7 0.00 0.00 0.00 57 1014.2
20260510133041 16 351 3.2 12.9 0.00 0.00 0.00 59 1013.7
20260510132912 16 333 6.4 16.1 0.00 0.00 0.00 59 1014.1
20260510132410 16 354 4.8 17.7 0.00 0.00 0.00 59 1013.9
20260510131908 16 349 4.8 11.3 0.00 0.00 0.00 61 1013.8
20260510131602 16 340 6.4 11.3 0.00 0.00 0.00 61 1013.8
20260510131509 16 349 3.2 9.7 0.00 0.00 0.00 61 1013.3
20260510130839 16 358 4.8 11.3 0.00 0.00 0.00 62 1013.7
20260510130310 16 298 4.8 16.1 0.00 0.00 0.00 64 1013.6
20260510130107 15 313 3.2 16.1 0.00 0.00 0.00 66 1013.3
20260510125806 15 297 4.8 16.1 0.00 0.00 0.00 65 1013.6
20260510125241 15 284 4.8 9.7 0.00 0.00 0.00 66 1013.5
20260510124717 15 340 3.2 11.3 0.00 0.00 0.00 68 1013.5
20260510124534 14 338 3.2 9.7 0.00 0.00 0.00 69 1013.0
20260510124147 15 286 3.2 11.3 0.00 0.00 0.00 70 1013.4
20260510123647 14 283 1.6 6.4 0.00 0.00 0.00 71 1013.3
20260510123335 14 284 3.2 6.4 0.00 0.00 0.00 71 1013.2
20260510123025 14 284 1.6 6.4 0.00 0.00 0.00 71 1012.8
20260510122617 14 284 3.2 11.3 0.00 0.00 0.00 72 1013.2
20260510122048 14 284 3.2 11.3 0.00 0.00 0.00 72 1013.1
20260510121806 13 285 3.2 9.7 0.00 0.00 0.00 72 1013.1
20260510121515 13 285 1.6 9.7 0.00 0.00 0.00 72 1012.6
20260510121018 13 284 3.2 8.0 0.00 0.00 0.00 73 1012.8
20260510120450 13 283 4.8 8.0 0.00 0.00 0.00 73 1012.6
20260510120015 13 283 3.2 8.0 0.00 0.03 0.00 73 1012.2
20260510115925 13 283 4.8 11.3 0.00 0.00 0.00 73 1012.6
20260510115638 13 284 4.8 11.3 0.00 0.00 0.00 73 1012.3
20260510114916 13 285 4.8 11.3 0.00 0.00 0.00 74 1012.3
20260510114524 13 284 3.2 9.7 0.00 0.03 0.00 74 1012.0
20260510114346 13 284 4.8 11.3 0.00 0.00 0.00 74 1012.5
20260510114108 13 284 3.2 8.0 0.00 0.00 0.00 75 1012.5
20260510113319 13 284 3.2 11.3 0.00 0.00 0.00 75 1012.5
20260510113029 13 284 3.2 9.7 0.00 0.03 0.00 75 1012.1
20260510112750 13 284 3.2 4.8 0.00 0.00 0.00 76 1012.5
20260510112733 13 284 3.2 6.4 0.00 0.00 0.00 76 1012.2
20260510111720 13 284 1.6 6.4 0.00 0.00 0.00 76 1012.4
20260510111519 13 284 1.6 6.4 0.00 0.03 0.00 77 1012.3
20260510111219 13 285 1.6 3.2 0.00 0.00 0.00 77 1012.6
20260510110659 13 285 1.6 3.2 0.00 0.00 0.00 79 1012.6
20260510110128 13 286 1.6 3.2 0.00 0.03 0.00 79 1012.5
20260510110057 13 286 0.0 3.2 0.00 0.03 0.00 78 1012.2
20260510105602 13 286 1.6 4.8 0.00 0.03 0.00 76 1012.3
20260510105034 13 285 1.6 6.4 0.00 0.03 0.00 75 1012.0
20260510104601 13 282 3.2 12.9 0.00 0.10 0.00 75 1011.5
20260510104508 13 283 3.2 12.9 0.00 0.03 0.00 75 1011.8
20260510103944 13 283 1.6 12.9 0.00 0.03 0.00 75 1011.6
20260510103415 13 284 3.2 12.9 0.00 0.05 0.00 76 1011.6
20260510103106 13 287 1.6 12.9 0.00 0.10 0.00 76 1011.1
20260510102915 14 287 3.2 12.9 0.00 0.05 0.00 76 1011.5
20260510102346 14 284 3.2 17.7 0.00 0.05 0.00 76 1011.5
20260510102047 14 284 3.2 17.7 0.00 0.05 0.00 77 1011.4
20260510101532 13 284 4.8 17.7 0.00 0.10 0.00 77 1010.9
20260510101253 14 286 3.2 8.0 0.00 0.08 0.00 78 1011.3
20260510100751 14 286 3.2 11.3 0.00 0.08 0.00 78 1011.3
20260510100223 14 288 3.2 11.3 0.00 0.10 0.00 79 1011.2
20260510100022 14 288 3.2 9.7 0.00 0.10 0.00 79 1010.7
20260510095943 14 289 3.2 4.8 0.00 0.10 0.00 79 1011.1
20260510095152 14 290 3.2 4.8 0.00 0.10 0.00 79 1011.1
20260510094646 15 291 3.2 6.4 0.00 0.13 0.00 80 1011.1
20260510094610 14 291 1.6 6.4 0.00 0.18 0.00 80 1010.6
20260510094145 15 290 1.6 6.4 0.00 0.13 0.00 80 1011.1
20260510093621 15 273 1.6 3.2 0.00 0.13 0.00 80 1011.0
20260510093054 15 273 1.6 4.8 0.00 0.15 0.00 79 1011.1
20260510093002 15 273 1.6 4.8 0.00 0.18 0.00 79 1010.7
20260510092552 15 273 1.6 4.8 0.00 0.15 0.00 79 1011.0
20260510092029 15 288 1.6 4.8 0.00 0.15 0.00 78 1010.9
20260510091543 15 290 1.6 6.4 0.00 0.18 0.00 78 1010.4
20260510091523 15 290 3.2 6.4 0.00 0.15 0.00 78 1010.8
20260510091022 15 290 3.2 6.4 0.00 0.15 0.00 79 1010.7
20260510090457 15 290 1.6 4.8 0.00 0.15 0.00 78 1010.7
20260510090055 15 290 1.6 4.8 0.00 0.18 0.00 77 1010.3
20260510085928 15 290 1.6 4.8 0.00 0.18 0.00 77 1010.7
20260510085427 15 273 0.0 1.6 0.00 0.18 0.00 77 1010.6
20260510085132 15 290 0.0 1.6 0.00 0.18 0.00 77 1010.5
20260510084629 15 273 1.6 3.2 0.00 0.20 0.00 77 1010.5
20260510084555 15 273 0.0 3.2 0.00 0.25 0.00 77 1010.1
20260510084059 15 290 1.6 3.2 0.00 0.20 0.00 77 1010.5
20260510083537 15 273 0.0 3.2 0.00 0.20 0.00 77 1010.4
20260510083007 15 273 0.0 3.2 0.00 0.25 0.00 77 1010.1
20260510082817 15 273 1.6 4.8 0.00 0.23 0.00 77 1010.4
20260510082253 15 273 0.0 4.8 0.00 0.23 0.00 77 1010.3
20260510081751 15 273 1.6 4.8 0.00 0.23 0.00 76 1010.3
20260510081545 15 273 0.0 4.8 0.00 0.25 0.00 76 1009.8
20260510081254 15 291 1.6 4.8 0.00 0.25 0.00 76 1009.9
20260510080553 15 273 1.6 4.8 0.00 0.25 0.00 75 1009.8
20260510080106 15 273 0.0 3.2 0.00 0.25 0.00 75 1009.4
20260510080027 15 292 1.6 4.8 0.00 0.25 0.00 75 1009.8
20260510075505 15 273 1.6 4.8 0.00 0.25 0.00 75 1009.7
20260510074938 15 273 1.6 4.8 0.00 0.28 0.00 74 1009.5
20260510074638 16 273 1.6 4.8 0.00 0.28 0.00 74 1009.7
20260510074538 15 273 0.0 4.8 0.00 0.33 0.00 74 1009.1
20260510073915 16 290 1.6 6.4 0.00 0.28 0.00 74 1009.5
20260510073618 16 273 3.2 6.4 0.00 0.30 0.00 74 1009.6
20260510073020 16 273 1.6 6.4 0.00 0.33 0.00 73 1009.2
20260510072831 16 273 3.2 6.4 0.00 0.30 0.00 73 1009.7
20260510072329 16 273 3.2 6.4 0.00 0.30 0.00 72 1009.6
20260510071827 16 273 3.2 6.4 0.00 0.30 0.00 71 1009.6
20260510071539 16 273 1.6 6.4 0.00 0.33 0.00 70 1009.1
20260510071312 16 273 1.6 6.4 0.00 0.30 0.00 70 1009.6
20260510071036 17 286 1.6 6.4 0.00 0.33 0.00 69 1009.4
20260510070249 17 286 1.6 8.0 0.00 0.33 0.00 69 1009.5
20260510070025 16 286 0.0 8.0 0.00 0.33 0.00 69 1009.1
20260510065738 17 285 1.6 8.0 0.00 0.33 0.00 69 1009.5
20260510065237 17 285 3.2 6.4 0.00 0.36 0.00 68 1009.4
20260510065226 17 286 1.6 6.4 0.00 0.36 0.00 67 1009.4
20260510064511 17 286 1.6 4.8 0.00 0.38 0.00 67 1009.0
20260510064439 17 286 1.6 4.8 0.00 0.36 0.00 67 1009.5
20260510063710 17 286 1.6 4.8 0.00 0.36 0.00 67 1009.5
20260510063142 17 286 1.6 4.8 0.00 0.36 0.00 67 1009.5
20260510063016 17 286 1.6 4.8 0.00 0.38 0.00 67 1009.1
20260510062901 17 286 1.6 3.2 0.00 0.36 0.00 67 1009.6
20260510062349 17 286 1.6 4.8 0.00 0.36 0.00 67 1009.5
20260510061819 17 286 1.6 4.8 0.00 0.36 0.00 67 1009.6
20260510061033 17 286 1.6 4.8 0.00 0.38 0.00 67 1009.7
20260510060537 17 286 1.6 4.8 0.00 0.38 0.00 67 1009.7
20260510060047 17 286 1.6 4.8 0.00 0.38 0.00 67 1009.3
20260510060009 17 286 3.2 8.0 0.00 0.38 0.00 67 1009.7
20260510055446 17 273 3.2 8.0 0.00 0.38 0.00 69 1009.7
20260510054926 17 287 3.2 8.0 0.00 0.38 0.00 70 1009.6
20260510054536 16 286 1.6 8.0 0.00 0.41 0.00 70 1009.3
20260510054359 16 286 3.2 8.0 0.00 0.38 0.00 71 1009.7
20260510053830 16 285 3.2 4.8 0.00 0.41 0.00 70 1009.7
20260510053333 16 285 3.2 4.8 0.00 0.41 0.00 70 1009.6
20260510053048 16 285 1.6 6.4 0.00 0.41 0.00 69 1009.1
20260510052808 17 285 1.6 6.4 0.00 0.41 0.00 69 1009.5
20260510052526 17 286 1.6 4.8 0.00 0.41 0.00 69 1009.5
20260510051804 17 286 1.6 4.8 0.00 0.41 0.00 68 1009.6
20260510051526 16 286 0.0 4.8 0.00 0.41 0.00 68 1009.2
20260510051236 17 286 1.6 4.8 0.00 0.41 0.00 68 1009.5
20260510050948 17 286 1.6 4.8 0.00 0.41 0.00 68 1009.5
20260510050230 17 286 3.2 4.8 0.00 0.41 0.00 68 1009.6
20260510050003 16 286 1.6 4.8 0.00 0.46 0.00 68 1009.2
20260510045703 17 286 3.2 6.4 0.00 0.41 0.00 67 1009.5
20260510045422 17 286 3.2 6.4 0.00 0.41 0.00 67 1009.5
20260510044646 17 286 3.2 4.8 0.00 0.41 0.00 67 1009.5
20260510044503 17 286 1.6 4.8 0.00 0.46 0.00 66 1009.2
20260510044144 17 286 3.2 6.4 0.00 0.41 0.00 66 1009.6
20260510043644 17 286 1.6 6.4 0.00 0.43 0.00 66 1009.6
20260510043143 17 286 3.2 4.8 0.00 0.43 0.00 66 1009.6
20260510043029 17 286 1.6 4.8 0.00 0.46 0.00 66 1009.2
20260510042644 17 286 3.2 4.8 0.00 0.43 0.00 65 1009.6
20260510042140 17 286 1.6 4.8 0.00 0.43 0.00 65 1009.6
20260510041638 17 286 1.6 3.2 0.00 0.46 0.00 64 1009.5
20260510041606 17 286 0.0 3.2 0.00 0.46 0.00 64 1009.2
20260510041109 17 286 1.6 3.2 0.00 0.46 0.00 64 1009.5
20260510040829 17 286 0.0 3.2 0.00 0.46 0.00 64 1009.6
20260510040012 17 286 0.0 3.2 0.00 0.46 0.00 64 1009.2
20260510035606 17 286 1.6 3.2 0.00 0.46 0.46 64 1009.5
20260510035257 18 286 1.6 3.2 0.00 0.46 0.46 63 1009.5
20260510034528 17 286 0.0 4.8 0.00 0.46 0.46 63 1009.1
20260510034511 18 286 1.6 4.8 0.00 0.46 0.46 63 1009.5
20260510034008 18 286 1.6 4.8 0.00 0.46 0.46 62 1009.4
20260510033441 18 286 0.0 3.2 0.00 0.46 0.46 62 1009.4
20260510032914 18 286 0.0 1.6 0.00 0.46 0.46 62 1009.5
20260510032405 18 286 0.0 1.6 0.00 0.46 0.46 62 1009.4
20260510031901 18 286 0.0 1.6 0.00 0.46 0.46 61 1009.4
20260510031526 18 286 0.0 1.6 0.00 0.46 0.46 61 1009.0
20260510031359 18 286 0.0 3.2 0.00 0.46 0.46 61 1009.3
20260510030855 18 286 0.0 1.6 0.00 0.46 0.46 60 1009.3
20260510030353 18 286 0.0 3.2 0.00 0.46 0.46 60 1009.3
20260510030050 18 286 0.0 3.2 0.00 0.46 0.46 60 1008.9
20260510025849 18 286 0.0 1.6 0.00 0.46 0.46 60 1009.3
20260510025324 18 286 0.0 3.2 0.00 0.46 0.46 60 1009.3
20260510024755 18 286 0.0 3.2 0.00 0.46 0.46 59 1009.2
20260510024555 18 286 0.0 3.2 0.00 0.46 0.46 59 1008.8
20260510024254 18 286 1.6 3.2 0.00 0.46 0.46 59 1009.1
20260510023948 19 286 1.6 4.8 0.00 0.46 0.46 59 1009.0
20260510023200 19 286 1.6 4.8 0.00 0.46 0.46 58 1009.1
20260510023111 18 286 0.0 4.8 0.00 0.46 0.46 58 1008.7
20260510022922 19 286 1.6 8.0 0.00 0.46 0.46 58 1009.0
20260510022132 19 286 3.2 8.0 0.00 0.46 0.46 57 1008.9
20260510021604 19 286 3.2 8.0 0.00 0.46 0.46 57 1008.9
20260510021552 20 286 3.2 8.0 0.00 0.46 0.46 56 1008.6
20260510021512 19 286 1.6 8.0 0.00 0.46 0.46 57 1008.5
20260510020536 20 286 3.2 6.4 0.00 0.46 0.46 56 1008.7
20260510020232 20 286 3.2 11.3 0.00 0.46 0.46 55 1008.5
20260510020026 19 286 0.0 9.7 0.00 0.46 0.46 55 1008.2
20260510015506 20 286 3.2 11.3 0.00 0.46 0.46 56 1008.5
20260510014937 20 287 3.2 12.9 0.00 0.46 0.46 56 1008.4
20260510014516 19 286 3.2 12.9 0.00 0.46 0.46 56 1008.0
20260510014435 20 286 3.2 12.9 0.00 0.46 0.46 55 1008.3
20260510013933 20 286 3.2 8.0 0.00 0.46 0.46 56 1008.2
20260510013403 20 287 3.2 8.0 0.00 0.46 0.46 55 1008.1
20260510013049 20 288 3.2 9.7 0.00 0.46 0.46 55 1007.8
20260510012900 20 286 3.2 11.3 0.00 0.46 0.46 55 1008.0
20260510012335 20 286 3.2 11.3 0.00 0.46 0.46 55 1007.8
20260510011806 20 287 3.2 11.3 0.00 0.46 0.46 55 1007.9
20260510011606 20 287 1.6 9.7 0.00 0.46 0.46 55 1007.7
20260510011528 20 286 3.2 11.3 0.00 0.46 0.46 55 1007.9
20260510011000 20 288 3.2 11.3 0.00 0.46 0.46 54 1007.8
20260510010233 20 287 3.2 11.3 0.00 0.46 0.46 54 1007.8
20260510010008 20 287 3.2 9.7 0.00 0.46 0.46 54 1007.4
20260510005710 20 286 3.2 8.0 0.00 0.46 0.46 54 1007.6
20260510005155 21 286 3.2 8.0 0.00 0.46 0.46 53 1007.6
20260510004658 21 288 3.2 8.0 0.00 0.46 0.46 53 1007.4
20260510004518 21 288 3.2 8.0 0.00 0.46 0.46 53 1007.2
20260510004130 21 158 3.2 11.3 0.00 0.46 0.46 52 1007.4
20260510003631 21 194 3.2 11.3 0.00 0.46 0.46 51 1007.4
20260510003059 21 161 4.8 14.5 0.00 0.46 0.46 51 1007.2
20260510003021 21 160 3.2 14.5 0.00 0.46 0.46 51 1007.0
20260510002558 21 142 4.8 14.5 0.00 0.46 0.46 51 1007.2
20260510002034 21 189 4.8 14.5 0.00 0.46 0.46 51 1007.1
20260510001546 21 137 3.2 14.5 0.00 0.46 0.46 49 1006.7
20260510001529 22 137 4.8 14.5 0.00 0.46 0.46 49 1007.0
20260510001027 22 165 6.4 20.9 0.00 0.46 0.46 49 1007.0
20260510000458 22 167 6.4 20.9 0.00 0.46 0.46 49 1006.9
20260510000043 22 203 8.0 20.9 0.00 0.46 0.46 47 1006.5
20260509235958 22 142 6.4 20.9 0.00 0.46 0.46 47 1006.9
20260509235453 22 116 6.4 22.5 0.00 0.46 0.46 48 1006.8
20260509235208 22 157 6.4 22.5 0.00 0.46 0.46 47 1006.7
20260509234553 22 132 6.4 22.5 0.00 0.46 0.46 46 1006.4
20260509234422 22 97 8.0 25.7 0.00 0.46 0.46 46 1006.7
20260509233917 23 100 9.7 25.7 0.00 0.46 0.46 46 1006.7
20260509233418 23 82 8.0 24.1 0.00 0.46 0.46 46 1006.6
20260509233015 22 140 8.0 22.5 0.00 0.46 0.46 46 1006.3
20260509232851 23 182 6.4 16.1 0.00 0.46 0.46 47 1006.6
20260509232346 23 132 8.0 19.3 0.00 0.46 0.46 47 1006.6
20260509231819 23 226 8.0 20.9 0.00 0.46 0.46 46 1006.5
20260509231513 23 153 9.7 24.1 0.00 0.46 0.46 46 1006.2
20260509231318 23 205 8.0 24.1 0.00 0.46 0.46 46 1006.5
20260509230753 23 246 9.7 24.1 0.00 0.46 0.46 46 1006.5
20260509230254 23 185 8.0 24.1 0.00 0.46 0.46 46 1006.4
20260509230007 23 114 11.3 24.1 0.00 0.46 0.46 46 1006.1
20260509225733 23 174 8.0 19.3 0.00 0.46 0.46 47 1006.4
20260509225235 23 145 6.4 19.3 0.00 0.46 0.46 47 1006.4
20260509224712 23 103 8.0 22.5 0.00 0.46 0.46 47 1006.4
20260509224509 23 180 4.8 22.5 0.00 0.46 0.46 47 1006.1
20260509224209 23 214 9.7 24.1 0.00 0.46 0.46 47 1006.4
20260509223915 23 124 11.3 24.1 0.00 0.46 0.46 47 1006.4
20260509223153 23 118 11.3 30.6 0.00 0.46 0.46 46 1006.4
20260509223018 23 132 9.7 30.6 0.00 0.46 0.46 47 1006.1
20260509222629 23 97 9.7 30.6 0.00 0.46 0.46 47 1006.4
20260509222336 23 136 8.0 22.5 0.00 0.46 0.46 48 1006.4
20260509221539 23 207 9.7 24.1 0.00 0.46 0.46 49 1006.3
20260509221509 23 121 9.7 24.1 0.00 0.46 0.46 47 1006.4
20260509220519 23 115 9.7 30.6 0.00 0.46 0.46 47 1006.3
20260509220048 23 121 8.0 30.6 0.00 0.46 0.46 48 1006.1
20260509220019 23 119 9.7 30.6 0.00 0.46 0.46 48 1006.4
20260509215517 23 132 11.3 24.1 0.00 0.46 0.46 48 1006.4
20260509215019 23 156 9.7 19.3 0.00 0.46 0.46 48 1006.4
20260509214522 23 84 8.0 24.1 0.00 0.46 0.46 49 1006.2
20260509214505 23 102 9.7 24.1 0.00 0.46 0.46 49 1006.5
20260509214005 23 159 11.3 32.2 0.00 0.46 0.46 49 1006.4
20260509213506 23 99 11.3 32.2 0.00 0.46 0.46 48 1006.5
20260509213021 23 95 12.9 27.4 0.00 0.46 0.46 47 1006.3
20260509212947 23 90 11.3 27.4 0.00 0.46 0.46 47 1006.4
20260509212438 23 192 11.3 22.5 0.00 0.46 0.46 46 1006.5
20260509211541 23 111 9.7 20.9 0.00 0.46 0.46 48 1006.3
20260509211421 23 71 9.7 20.9 0.00 0.46 0.46 48 1006.5
20260509211147 23 107 9.7 19.3 0.00 0.46 0.46 47 1006.6
20260509210423 23 106 9.7 25.7 0.00 0.46 0.46 49 1006.5
20260509205900 23 111 9.7 25.7 0.00 0.46 0.46 48 1006.6
20260509205349 23 129 8.0 22.5 0.00 0.46 0.46 49 1006.6
20260509204847 23 220 8.0 22.5 0.00 0.46 0.46 48 1006.6
20260509204531 23 95 9.7 22.5 0.00 0.46 0.46 49 1006.4
20260509204346 23 138 8.0 32.2 0.00 0.46 0.46 49 1006.6
20260509203820 23 144 8.0 32.2 0.00 0.46 0.46 47 1006.7
20260509203319 23 104 8.0 20.9 0.00 0.46 0.46 49 1006.7
20260509203055 22 205 8.0 19.3 0.00 0.46 0.46 52 1006.5
20260509202757 22 183 8.0 25.7 0.00 0.46 0.46 50 1006.8
20260509202236 22 141 6.4 25.7 0.00 0.46 0.46 54 1006.9
20260509201715 22 138 8.0 17.7 0.00 0.46 0.46 53 1006.9
20260509201533 22 88 4.8 17.7 0.00 0.46 0.46 51 1006.6
20260509201151 22 118 11.3 22.5 0.00 0.46 0.46 52 1006.9
20260509200655 22 118 9.7 22.5 0.00 0.46 0.46 50 1007.0
20260509200131 22 173 11.3 22.5 0.00 0.46 0.46 54 1007.1
20260509200105 22 153 6.4 22.5 0.00 0.46 0.46 54 1006.9
20260509195604 22 62 9.7 22.5 0.00 0.46 0.46 53 1007.0
20260509195040 22 140 9.7 19.3 0.00 0.46 0.46 53 1007.1
20260509194543 22 105 9.7 19.3 0.00 0.46 0.46 54 1007.2
20260509194517 21 96 8.0 17.7 0.00 0.46 0.46 54 1006.9
20260509194238 21 137 8.0 19.3 0.00 0.46 0.46 55 1007.3
20260509193516 22 147 9.7 27.4 0.00 0.46 0.46 56 1007.4
20260509193029 21 102 4.8 27.4 0.00 0.46 0.46 58 1007.2
20260509193011 21 66 9.7 27.4 0.00 0.46 0.46 58 1007.4
20260509192513 21 97 8.0 17.7 0.00 0.46 0.46 56 1007.4
20260509191951 21 95 9.7 20.9 0.00 0.46 0.46 57 1007.5
20260509191514 21 88 9.7 20.9 0.00 0.46 0.46 56 1007.3
20260509191430 21 63 9.7 20.9 0.00 0.46 0.46 56 1007.6
20260509190909 21 120 8.0 17.7 0.00 0.46 0.46 57 1007.6
20260509190339 21 150 8.0 19.3 0.00 0.46 0.46 59 1007.6
20260509190008 21 116 6.4 19.3 0.00 0.46 0.46 57 1007.5
20260509185814 21 197 8.0 17.7 0.00 0.46 0.46 58 1007.7
20260509185307 21 130 6.4 16.1 0.00 0.46 0.46 61 1007.7
20260509184806 21 120 6.4 16.1 0.00 0.46 0.46 58 1007.7
20260509184553 21 103 4.8 16.1 0.00 0.46 0.46 63 1007.5
20260509184306 21 95 6.4 12.9 0.00 0.46 0.46 60 1007.7
20260509183801 21 219 6.4 17.7 0.00 0.46 0.46 61 1007.6
20260509183257 20 146 6.4 17.7 0.00 0.46 0.46 62 1007.7
20260509183055 20 154 4.8 17.7 0.00 0.46 0.46 62 1007.5
20260509182753 20 62 8.0 24.1 0.00 0.46 0.46 62 1007.7
20260509182229 20 135 6.4 22.5 0.00 0.46 0.46 62 1007.8
20260509181724 20 166 8.0 14.5 0.00 0.46 0.46 63 1007.8
20260509181555 20 123 6.4 17.7 0.00 0.46 0.46 64 1007.6
20260509181159 20 201 8.0 27.4 0.00 0.46 0.46 65 1007.9
20260509180631 20 161 8.0 22.5 0.00 0.46 0.46 61 1007.8
20260509180118 20 134 8.0 22.5 0.00 0.46 0.46 61 1007.8
20260509180038 20 140 9.7 22.5 0.00 0.46 0.46 62 1007.7
20260509175619 20 137 8.0 17.7 0.00 0.46 0.46 63 1007.8
20260509175119 20 94 8.0 17.7 0.00 0.46 0.46 67 1007.8
20260509174552 20 134 8.0 17.7 0.00 0.46 0.46 63 1007.7
20260509174528 20 128 8.0 17.7 0.00 0.46 0.46 63 1007.5
20260509174045 20 111 8.0 22.5 0.00 0.46 0.46 64 1007.8
20260509173521 20 138 8.0 20.9 0.00 0.46 0.46 64 1007.7
20260509173045 19 108 8.0 20.9 0.00 0.46 0.46 62 1007.6
20260509172955 20 169 6.4 20.9 0.00 0.46 0.46 64 1007.9
20260509172451 20 111 6.4 19.3 0.00 0.46 0.46 65 1008.0
20260509171949 20 107 6.4 19.3 0.00 0.46 0.46 65 1007.9
20260509171526 19 115 4.8 19.3 0.00 0.46 0.46 64 1007.7
20260509171447 19 192 8.0 19.3 0.00 0.46 0.46 63 1007.9
20260509170919 19 142 8.0 17.7 0.00 0.46 0.46 66 1008.0
20260509170417 19 161 8.0 17.7 0.00 0.46 0.46 66 1008.0
20260509170017 18 158 8.0 17.7 0.00 0.46 0.46 67 1007.8
20260509165905 19 216 6.4 19.3 0.00 0.46 0.46 67 1008.1
20260509165406 19 154 6.4 19.3 0.00 0.46 0.46 68 1008.1
20260509164902 19 199 8.0 19.3 0.00 0.46 0.46 70 1008.2
20260509164550 18 149 6.4 19.3 0.00 0.46 0.46 68 1007.9
20260509164401 19 116 8.0 19.3 0.00 0.46 0.46 68 1008.2
20260509163835 18 186 6.4 19.3 0.00 0.46 0.46 71 1008.2
20260509163308 18 136 6.4 19.3 0.00 0.46 0.46 70 1008.3
20260509163104 18 146 4.8 16.1 0.00 0.46 0.46 71 1008.1
20260509162811 18 61 6.4 16.1 0.00 0.46 0.46 73 1008.2
20260509162258 18 142 6.4 14.5 0.00 0.46 0.46 75 1008.2
20260509161757 17 73 8.0 19.3 0.00 0.46 0.46 76 1008.2
20260509161524 17 76 4.8 17.7 0.00 0.46 0.46 76 1007.9
20260509161451 17 93 8.0 19.3 0.00 0.46 0.46 76 1008.1
20260509160700 17 161 8.0 16.1 0.00 0.46 0.46 77 1008.1
20260509160159 17 82 8.0 16.1 0.00 0.46 0.46 75 1008.0
20260509160020 17 86 9.7 17.7 0.00 0.46 0.46 75 1007.8
20260509155630 17 124 6.4 19.3 0.00 0.46 0.46 75 1007.9
20260509155355 18 161 6.4 19.3 0.00 0.46 0.46 74 1007.9
20260509154603 18 44 8.0 16.1 0.00 0.46 0.46 77 1007.9
20260509154535 17 51 8.0 16.1 0.00 0.46 0.46 77 1007.7
20260509154036 18 93 6.4 14.5 0.00 0.46 0.46 75 1007.8
20260509153751 17 140 6.4 16.1 0.00 0.46 0.46 77 1007.8
20260509153506 17 89 6.4 16.1 0.00 0.46 0.46 79 1007.7
20260509153100 17 93 3.2 14.5 0.00 0.46 0.46 79 1007.5
20260509152526 17 120 4.8 14.5 0.00 0.46 0.46 78 1007.8
20260509152004 17 125 6.4 14.5 0.00 0.46 0.46 81 1007.9
20260509151600 17 159 4.8 14.5 0.00 0.46 0.46 82 1007.8
20260509151432 17 199 4.8 14.5 0.00 0.46 0.46 80 1007.9
20260509150933 16 153 6.4 16.1 0.00 0.46 0.46 82 1007.8
20260509150402 16 87 8.0 16.1 0.00 0.46 0.46 83 1007.8
20260509150051 16 99 6.4 14.5 0.00 0.46 0.46 82 1007.5
20260509145858 16 52 8.0 14.5 0.00 0.46 0.46 83 1007.7
20260509145355 16 87 8.0 14.5 0.00 0.46 0.46 84 1007.7
20260509144830 15 143 8.0 16.1 0.00 0.46 0.46 86 1007.7
20260509144540 15 95 8.0 16.1 0.00 0.46 0.46 86 1007.5
20260509144520 15 118 6.4 14.5 0.00 0.46 0.46 86 1007.7
20260509143801 15 86 8.0 14.5 0.00 0.46 0.46 89 1007.6
20260509143235 15 93 6.4 12.9 0.00 0.46 0.46 89 1007.7
20260509143055 15 129 6.4 12.9 0.00 0.46 0.46 90 1007.5
20260509142705 15 121 4.8 9.7 0.00 0.46 0.46 92 1007.6